(170606) = 2003 YG33

Discovered at Kitt Peak on 2003-12-16 by Spacewatch.

Orbit

Orbit type: Main Belt

Note: WebGL enabled browser required.

epoch2023-09-13.0
epoch JD2460200.5
perihelion date2019-08-19.39859
perihelion JD2458714.89859
argument of perihelion (°)219.99541
ascending node (°)97.27311
inclination (°)16.78789
eccentricity0.1709712
perihelion distance (AU)2.1587660
Tisserand w.r.t. Jupiter3.3
ΔV w.r.t. Earth (km/sec)10.6
semimajor axis (AU)2.6039698
mean anomaly (°)348.45944
mean daily motion (°/day)0.23455780
aphelion distance (AU)3.049
period (years)4.2
P-vector [x]0.70736965
P-vector [y]-0.55190874
P-vector [z]-0.44161626
Q-vector [x]0.64617546
Q-vector [y]0.75815317
Q-vector [z]0.08752745
absolute magnitude15.45
phase slope0.15
uncertainty0
referenceMPEC 2024-A34
observations used524
oppositions16
arc length (days)7148
first opposition used2003
last opposition used2023
residual rms (arc-secs)0.77
perturbers coarse indicatorM-v
perturbers precise indicator003Ek
first observation date used2003-11-01.0
last observation date used2023-05-27.0
computer nameMPCLINUX
JD of orbit computation2456937.533170
perihelion JD uncertainty (days)1.8085E-04
argument of perihelion uncertainty (°)3.9737E-05
ascending node uncertainty (°)2.3104E-05
inclination uncertainty (°)7.6167E-06
eccentricity uncertainty 5.9068E-08
perihelion distance uncertainty (AU)1.7001E-07
Minimum Orbit Intersection Distances (in AU)
for orbit epoch: 2460200.5, reference: E2024-A34
Mercury1.72968
Venus1.43938
Earth1.16743
Mars0.776
Jupiter2.23862
Saturn6.10708
Uranus15.5219
Neptune27.1775

Observations

541 total observations over interval: 2003 11 01.31922 – 2023 05 27.936485
These data are available for download (format description).

Date (UT) J2000 RA J2000 Dec Magn Location Ref
2003 11 01.31922 05 19 49.41 +09 54 35.5 19.0   704 – Lincoln Laboratory ETS, New Mexico MPS 108484
2003 11 01.34315 05 19 48.59 +09 54 36.5 19.1   704 – Lincoln Laboratory ETS, New Mexico MPS 108484
2003 11 01.35532 05 19 48.21 +09 54 37.2 19.7   704 – Lincoln Laboratory ETS, New Mexico MPS 108484
2003 11 23.42989 05 02 28.08 +10 27 24.6 20.1 V 691 – Steward Observatory, Kitt Peak-Spacewatch MPS 108484
2003 11 23.45744 05 02 26.37 +10 27 28.4 20.2 V 691 – Steward Observatory, Kitt Peak-Spacewatch MPS 108484
2003 11 23.50563 05 02 23.42 +10 27 35.5 20.2 V 691 – Steward Observatory, Kitt Peak-Spacewatch MPS 108484
2003 11 30.26662 04 55 23.27 +10 46 28.8 19.2   704 – Lincoln Laboratory ETS, New Mexico MPS 108117
2003 11 30.27934 04 55 22.49 +10 46 32.0 19.8   704 – Lincoln Laboratory ETS, New Mexico MPS 108117
2003 11 30.29215 04 55 21.58 +10 46 33.6 19.7   704 – Lincoln Laboratory ETS, New Mexico MPS 108117
2003 11 30.30497 04 55 20.83 +10 46 35.8 19.8   704 – Lincoln Laboratory ETS, New Mexico MPS 108117
2003 11 30.31802 04 55 19.98 +10 46 38.4 19.4   704 – Lincoln Laboratory ETS, New Mexico MPS 108117
2003 12 16.27724 04 38 32.31 +11 47 50.4 19.6 V 691 – Steward Observatory, Kitt Peak-Spacewatch MPS 94905
2003 12 16.30483 04 38 30.62 +11 47 57.8 19.7 V 691 – Steward Observatory, Kitt Peak-Spacewatch MPS 94905
2003 12 16.33371 04 38 28.85 +11 48 05.8 19.8 V 691 – Steward Observatory, Kitt Peak-Spacewatch MPS 94906
2003 12 20.21067 04 34 44.37 +12 06 09.5 19.6   704 – Lincoln Laboratory ETS, New Mexico MPS 94906
2003 12 20.22430 04 34 43.64 +12 06 12.7 19.9   704 – Lincoln Laboratory ETS, New Mexico MPS 94906
2003 12 20.23742 04 34 42.91 +12 06 15.3 19.8   704 – Lincoln Laboratory ETS, New Mexico MPS 94906
2003 12 20.25093 04 34 42.05 +12 06 20.5 19.9   704 – Lincoln Laboratory ETS, New Mexico MPS 94906
2003 12 22.19998 04 32 54.81 +12 15 48.7 19.5   704 – Lincoln Laboratory ETS, New Mexico MPS 94906
2003 12 22.21250 04 32 54.10 +12 15 51.5 20.3   704 – Lincoln Laboratory ETS, New Mexico MPS 94906
2003 12 22.22552 04 32 53.46 +12 15 55.7 20.1   704 – Lincoln Laboratory ETS, New Mexico MPS 94906
2003 12 22.23833 04 32 52.75 +12 15 59.5 19.9   704 – Lincoln Laboratory ETS, New Mexico MPS 94906
2003 12 22.25131 04 32 52.02 +12 16 03.5 19.9   704 – Lincoln Laboratory ETS, New Mexico MPS 94906
2005 03 08.25981 10 22 17.16 +31 44 44.5 19.5 R 703 – Catalina Sky Survey MPS 129111
2005 03 08.26838 10 22 16.72 +31 44 47.9 18.9 R 703 – Catalina Sky Survey MPS 129111
2005 03 08.27692 10 22 16.34 +31 44 49.2 19.4 R 703 – Catalina Sky Survey MPS 129111
2005 03 08.28550 10 22 15.77 +31 44 51.0 21.2 R 703 – Catalina Sky Survey MPS 129111
2005 03 08.36306 10 22 11.60 +31 45 11.6 19.6   704 – Lincoln Laboratory ETS, New Mexico MPS 129111
2005 03 08.37470 10 22 10.93 +31 45 13.2 19.9   704 – Lincoln Laboratory ETS, New Mexico MPS 129111
2005 03 08.38600 10 22 10.31 +31 45 17.5 19.9   704 – Lincoln Laboratory ETS, New Mexico MPS 129111
2005 03 08.39916 10 22 09.70 +31 45 20.7 20.2   704 – Lincoln Laboratory ETS, New Mexico MPS 129111
2005 03 14.36747 10 17 08.29 +32 06 10.5 19.6 R 703 – Catalina Sky Survey MPS 129111
2005 03 14.37653 10 17 08.04 +32 06 12.8 19.8 R 703 – Catalina Sky Survey MPS 129111
2005 03 14.38560 10 17 07.50 +32 06 14.0 19.5 R 703 – Catalina Sky Survey MPS 129111
2005 03 14.39463 10 17 07.10 +32 06 15.1 18.9 R 703 – Catalina Sky Survey MPS 129111
2006 04 30.37422 17 02 08.84 -06 48 41.0 18.2 V 703 – Catalina Sky Survey MPS 170831
2006 04 30.38218 17 02 08.66 -06 48 41.0 18.0 V 703 – Catalina Sky Survey MPS 170831
2006 04 30.39017 17 02 08.37 -06 48 41.5 18.3 V 703 – Catalina Sky Survey MPS 170831
2006 04 30.39814 17 02 08.23 -06 48 41.8 18.1 V 703 – Catalina Sky Survey MPS 170831
2006 05 23.32891 16 45 32.40 -07 25 39.9 18.0 V 703 – Catalina Sky Survey MPS 172023
2006 05 23.33378 16 45 32.14 -07 25 40.8 18.3 V 703 – Catalina Sky Survey MPS 172023
2006 05 23.33870 16 45 31.86 -07 25 41.9 18.3 V 703 – Catalina Sky Survey MPS 172023
2006 05 23.34360 16 45 31.57 -07 25 43.0 18.4 V 703 – Catalina Sky Survey MPS 172023
2006 05 25.40061 16 43 31.11 -07 32 46.2 17.8 V G96 – Mt. Lemmon Survey MPS 172023
2006 05 25.40620 16 43 30.75 -07 32 47.0 18.0 V G96 – Mt. Lemmon Survey MPS 172023
2006 05 25.41170 16 43 30.39 -07 32 47.9 17.9 V G96 – Mt. Lemmon Survey MPS 172023
2006 05 25.41736 16 43 30.07 -07 32 49.3 18.0 V G96 – Mt. Lemmon Survey MPS 172023
2006 05 26.39021 16 42 32.14 -07 36 24.3 18.1 V G96 – Mt. Lemmon Survey MPS 172848
2006 05 26.39583 16 42 31.78 -07 36 25.5 18.1 V G96 – Mt. Lemmon Survey MPS 172848
2006 05 26.40132 16 42 31.42 -07 36 26.7 18.1 V G96 – Mt. Lemmon Survey MPS 172848
2006 05 26.40686 16 42 31.06 -07 36 27.0 17.7 V G96 – Mt. Lemmon Survey MPS 172848
2006 05 31.23922 16 37 35.85 -07 56 33.1 19.7 R G92 – Jarnac Observatory, Vail MPS 172848
2006 05 31.26543 16 37 34.17 -07 56 40.3 19.7 R G92 – Jarnac Observatory, Vail MPS 172848
2006 05 31.29263 16 37 32.43 -07 56 48.1 19.7 R G92 – Jarnac Observatory, Vail MPS 172848
2006 06 18.31679 16 19 25.72 -09 44 04.7 18.4 R 644 – Palomar Mountain/NEAT MPS 173904
2006 06 18.33800 16 19 24.51 -09 44 13.8 18.4 R 644 – Palomar Mountain/NEAT MPS 173904
2006 06 18.35921 16 19 23.33 -09 44 22.9 18.6 R 644 – Palomar Mountain/NEAT MPS 173904
2007 10 10.39100 04 01 41.84 -00 34 30.9 19.5 V 703 – Catalina Sky Survey MPS 276074
2007 10 10.40506 04 01 41.41 -00 34 34.1 19.3 V 703 – Catalina Sky Survey MPS 276074
2007 10 10.41917 04 01 41.16 -00 34 36.5 19.2 V 703 – Catalina Sky Survey MPS 276074
2007 10 10.43321 04 01 40.83 -00 34 40.3 18.7 V 703 – Catalina Sky Survey MPS 276074
2007 10 24.31849 03 53 19.89 -01 12 59.6 19.0 V G96 – Mt. Lemmon Survey MPS 223422
2007 10 24.32508 03 53 19.57 -01 13 00.5 18.9 V G96 – Mt. Lemmon Survey MPS 223422
2007 10 24.33185 03 53 19.24 -01 13 01.2 18.8 V G96 – Mt. Lemmon Survey MPS 223422
2007 10 24.33838 03 53 18.92 -01 13 02.0 18.8 V G96 – Mt. Lemmon Survey MPS 223422
2007 10 31.30142 03 47 22.95 -01 24 13.6 19.1 V 703 – Catalina Sky Survey MPS 223422
2007 10 31.31135 03 47 22.41 -01 24 14.1 18.7 V 703 – Catalina Sky Survey MPS 223422
2007 10 31.34043 03 47 20.72 -01 24 16.3 19.0 V 703 – Catalina Sky Survey MPS 223422
2007 10 31.34817 03 47 20.32 -01 24 16.7 19.0 V 703 – Catalina Sky Survey MPS 223422
2007 11 07.28112 03 40 37.48 -01 27 49.7 19.1 V 703 – Catalina Sky Survey MPS 224821
2007 11 07.28877 03 40 37.05 -01 27 48.5 19.1 V 703 – Catalina Sky Survey MPS 224821
2007 11 07.29639 03 40 36.62 -01 27 48.5 19.1 V 703 – Catalina Sky Survey MPS 224821
2007 11 07.30403 03 40 36.12 -01 27 49.4 19.0 V 703 – Catalina Sky Survey MPS 224821
2007 11 15.23365 03 32 24.97 -01 20 47.3 19.2 V 703 – Catalina Sky Survey MPS 228262
2007 11 15.24032 03 32 24.54 -01 20 47.7 19.2 V 703 – Catalina Sky Survey MPS 228262
2007 11 15.24681 03 32 24.14 -01 20 46.1 19.1 V 703 – Catalina Sky Survey MPS 228262
2007 11 15.25336 03 32 23.74 -01 20 46.2 18.9 V 703 – Catalina Sky Survey MPS 228262
2007 11 16.26243 03 31 20.58 -01 18 57.4 19.1   704 – Lincoln Laboratory ETS, New Mexico MPS 228262
2007 11 16.27507 03 31 19.73 -01 18 56.2 19.1   704 – Lincoln Laboratory ETS, New Mexico MPS 228262
2007 11 16.28781 03 31 18.99 -01 18 55.2 19.4   704 – Lincoln Laboratory ETS, New Mexico MPS 228262
2007 11 16.30045 03 31 18.19 -01 18 53.3 19.3   704 – Lincoln Laboratory ETS, New Mexico MPS 228262
2007 12 06.18419 03 12 30.60 -00 01 31.9 19.6 V 703 – Catalina Sky Survey MPS 230877
2007 12 06.19123 03 12 30.24 -00 01 29.4 19.1 V 703 – Catalina Sky Survey MPS 230877
2007 12 06.19833 03 12 29.84 -00 01 26.9 19.3 V 703 – Catalina Sky Survey MPS 230877
2007 12 06.20538 03 12 29.55 -00 01 24.4 19.4 V 703 – Catalina Sky Survey MPS 230877
2008 01 12.14360 03 01 01.95 +04 55 12.4 20.1 V 703 – Catalina Sky Survey MPS 235008
2008 01 12.15006 03 01 02.10 +04 55 15.8 20.0 V 703 – Catalina Sky Survey MPS 235008
2008 01 12.15650 03 01 02.13 +04 55 20.1 20.1 V 703 – Catalina Sky Survey MPS 235008
2008 01 12.16292 03 01 02.28 +04 55 23.5 20.0 V 703 – Catalina Sky Survey MPS 235008
2008 12 01.50391 09 50 11.18 +22 35 57.7 20.8 V G96 – Mt. Lemmon Survey MPS 268678
